| time (UTC) | temp F | wind direction | speed MPH | gust MPH | rain 1hr in | rain 24hr in | rain mn in | humidity % | barometer mb |
| 20260502170342 | 66 | 154 | 0.0 | 1.0 | 0.00 | 0.02 | 0.02 | 53 | 1016.2 |
| 20260502164330 | 64 | 134 | 4.0 | 6.0 | 0.00 | 0.02 | 0.02 | 52 | 1016.3 |
| 20260502163826 | 64 | 109 | 1.0 | 1.0 | 0.00 | 0.02 | 0.02 | 54 | 1016.6 |
| 20260502163322 | 64 | 103 | 0.0 | 1.0 | 0.00 | 0.02 | 0.02 | 54 | 1016.5 |
| 20260502162820 | 64 | 76 | 2.0 | 3.0 | 0.00 | 0.02 | 0.02 | 56 | 1016.5 |
| 20260502162316 | 63 | 99 | 1.0 | 2.0 | 0.00 | 0.02 | 0.02 | 59 | 1016.5 |
| 20260502161813 | 63 | 123 | 1.0 | 1.0 | 0.00 | 0.02 | 0.02 | 58 | 1016.4 |
| 20260502161309 | 62 | 105 | 1.0 | 1.0 | 0.00 | 0.02 | 0.02 | 59 | 1016.6 |
| 20260502160807 | 62 | 79 | 1.0 | 1.0 | 0.00 | 0.02 | 0.02 | 59 | 1016.4 |
| 20260502160306 | 61 | 74 | 1.0 | 1.0 | 0.00 | 0.02 | 0.02 | 57 | 1016.4 |
| 20260502152235 | 60 | 112 | 1.0 | 1.0 | 0.00 | 0.02 | 0.02 | 65 | 1016.2 |
| 20260502151733 | 60 | 106 | 1.0 | 1.0 | 0.00 | 0.02 | 0.02 | 65 | 1016.2 |
| 20260502151230 | 60 | 106 | 2.0 | 2.0 | 0.00 | 0.02 | 0.02 | 64 | 1016.2 |
| 20260502150727 | 60 | 93 | 3.0 | 3.0 | 0.00 | 0.02 | 0.02 | 62 | 1016.1 |
| 20260502150224 | 60 | 103 | 0.0 | 0.0 | 0.00 | 0.02 | 0.02 | 67 | 1015.6 |
| 20260502130612 | 54 | 106 | 2.0 | 3.0 | 0.00 | 0.02 | 0.02 | 83 | 1014.6 |
| 20260502130110 | 54 | 107 | 0.0 | 0.0 | 0.00 | 0.02 | 0.02 | 85 | 1014.6 |
| 20260502123555 | 52 | 106 | 0.0 | 0.0 | 0.00 | 0.02 | 0.02 | 89 | 1014.7 |
| 20260502123052 | 53 | 107 | 0.0 | 0.0 | 0.00 | 0.02 | 0.02 | 92 | 1014.3 |
| 20260502122548 | 52 | 113 | 0.0 | 0.0 | 0.00 | 0.02 | 0.02 | 95 | 1014.6 |
| 20260502122046 | 53 | 108 | 0.0 | 0.0 | 0.00 | 0.02 | 0.02 | 96 | 1014.5 |
| 20260502121543 | 53 | 106 | 0.0 | 0.0 | 0.00 | 0.02 | 0.02 | 96 | 1014.3 |
| 20260502121041 | 52 | 108 | 0.0 | 0.0 | 0.00 | 0.02 | 0.02 | 95 | 1014.5 |
| 20260502120536 | 52 | 109 | 0.0 | 0.0 | 0.00 | 0.02 | 0.02 | 94 | 1014.3 |
| 20260502115532 | 52 | 108 | 0.0 | 0.0 | 0.00 | 0.02 | 0.02 | 93 | 1014.1 |
| 20260502115027 | 52 | 108 | 0.0 | 0.0 | 0.00 | 0.02 | 0.02 | 92 | 1013.9 |
| 20260502114524 | 52 | 107 | 0.0 | 0.0 | 0.00 | 0.02 | 0.02 | 92 | 1014.0 |
| 20260502114021 | 52 | 109 | 0.0 | 0.0 | 0.00 | 0.02 | 0.02 | 93 | 1014.0 |
| 20260502113518 | 51 | 108 | 0.0 | 0.0 | 0.00 | 0.02 | 0.02 | 95 | 1013.8 |
| 20260502113017 | 51 | 106 | 0.0 | 0.0 | 0.00 | 0.02 | 0.02 | 96 | 1013.8 |
| 20260502112515 | 51 | 110 | 1.0 | 1.0 | 0.00 | 0.02 | 0.02 | 97 | 1013.9 |
| 20260502112012 | 51 | 100 | 0.0 | 1.0 | 0.00 | 0.02 | 0.02 | 97 | 1013.9 |
| 20260502111509 | 51 | 107 | 0.0 | 0.0 | 0.00 | 0.02 | 0.02 | 98 | 1014.0 |
| 20260502111006 | 51 | 99 | 0.0 | 1.0 | 0.00 | 0.02 | 0.02 | 98 | 1014.0 |
| 20260502110504 | 51 | 107 | 2.0 | 2.0 | 0.00 | 0.02 | 0.02 | 98 | 1013.8 |
| 20260502110001 | 51 | 108 | 0.0 | 0.0 | 0.00 | 0.02 | 0.02 | 99 | 1013.9 |
| 20260502105459 | 51 | 108 | 0.0 | 0.0 | 0.00 | 0.02 | 0.02 | 99 | 1013.7 |
| 20260502104956 | 52 | 110 | 0.0 | 0.0 | 0.00 | 0.02 | 0.02 | 99 | 1013.6 |
| 20260502104453 | 51 | 107 | 0.0 | 0.0 | 0.00 | 0.02 | 0.02 | 99 | 1013.6 |
| 20260502103950 | 52 | 104 | 0.0 | 0.0 | 0.00 | 0.02 | 0.02 | 99 | 1013.5 |
| 20260502103448 | 53 | 108 | 0.0 | 1.0 | 0.00 | 0.02 | 0.02 | 99 | 1013.7 |
| 20260502102944 | 53 | 107 | 0.0 | 0.0 | 0.00 | 0.02 | 0.02 | 99 | 1013.6 |
| 20260502102442 | 53 | 103 | 0.0 | 0.0 | 0.00 | 0.02 | 0.02 | 99 | 1013.2 |
| 20260502101938 | 53 | 105 | 0.0 | 0.0 | 0.00 | 0.02 | 0.02 | 99 | 1013.7 |
| 20260502101437 | 53 | 103 | 0.0 | 0.0 | 0.00 | 0.02 | 0.02 | 99 | 1013.9 |
| 20260502100934 | 53 | 108 | 0.0 | 0.0 | 0.00 | 0.02 | 0.02 | 99 | 1013.9 |
| 20260502100434 | 53 | 108 | 0.0 | 0.0 | 0.00 | 0.02 | 0.02 | 99 | 1014.2 |
| 20260502091408 | 54 | 116 | 0.0 | 0.0 | 0.00 | 0.02 | 0.02 | 99 | 1013.5 |
| 20260502090905 | 54 | 109 | 0.0 | 0.0 | 0.00 | 0.02 | 0.02 | 99 | 1013.9 |
| 20260502090402 | 54 | 109 | 0.0 | 0.0 | 0.00 | 0.02 | 0.02 | 99 | 1014.1 |
| 20260502071256 | 55 | 114 | 0.0 | 0.0 | 0.00 | 0.00 | 0.00 | 99 | 1013.7 |
| 20260502070755 | 55 | 97 | 0.0 | 1.0 | 0.00 | 0.00 | 0.00 | 99 | 1013.6 |
| 20260502070252 | 55 | 110 | 0.0 | 0.0 | 0.00 | 0.00 | 0.00 | 99 | 1014.0 |
| 20260502065751 | 55 | 111 | 0.0 | 0.0 | 0.00 | 0.00 | 0.00 | 99 | 1014.0 |
| 20260502065248 | 55 | 113 | 0.0 | 0.0 | 0.00 | 0.00 | 0.00 | 99 | 1014.1 |
| 20260502064746 | 55 | 108 | 0.0 | 0.0 | 0.00 | 0.00 | 0.00 | 99 | 1014.1 |
| 20260502064244 | 55 | 107 | 0.0 | 0.0 | 0.00 | 0.00 | 0.00 | 99 | 1014.1 |
| 20260502063741 | 55 | 110 | 0.0 | 0.0 | 0.00 | 0.00 | 0.00 | 99 | 1014.0 |
| 20260502063239 | 55 | 108 | 1.0 | 1.0 | 0.00 | 0.00 | 0.00 | 99 | 1014.3 |
| 20260502062736 | 55 | 108 | 0.0 | 0.0 | 0.00 | 0.00 | 0.00 | 99 | 1014.0 |
| 20260502062233 | 55 | 108 | 0.0 | 0.0 | 0.00 | 0.00 | 0.00 | 99 | 1014.1 |
| 20260502061732 | 55 | 112 | 0.0 | 0.0 | 0.00 | 0.00 | 0.00 | 99 | 1014.1 |
| 20260502061229 | 55 | 107 | 0.0 | 0.0 | 0.00 | 0.00 | 0.00 | 99 | 1014.2 |
| 20260502060724 | 55 | 111 | 0.0 | 1.0 | 0.00 | 0.00 | 0.00 | 99 | 1014.0 |
| 20260502060220 | 55 | 108 | 0.0 | 0.0 | 0.00 | 0.00 | 0.00 | 99 | 1014.0 |
| 20260502055718 | 55 | 110 | 0.0 | 0.0 | 0.00 | 0.00 | 0.00 | 99 | 1013.9 |
| 20260502055216 | 55 | 109 | 0.0 | 0.0 | 0.00 | 0.00 | 0.00 | 99 | 1014.0 |
| 20260502054715 | 55 | 110 | 0.0 | 0.0 | 0.00 | 0.00 | 0.00 | 99 | 1013.8 |
| 20260502054212 | 55 | 110 | 0.0 | 0.0 | 0.00 | 0.00 | 0.00 | 99 | 1013.9 |
| 20260502053709 | 55 | 110 | 0.0 | 0.0 | 0.00 | 0.00 | 0.00 | 99 | 1013.6 |
| 20260502053206 | 55 | 110 | 0.0 | 0.0 | 0.00 | 0.00 | 0.00 | 99 | 1014.1 |
| 20260502052704 | 55 | 110 | 0.0 | 0.0 | 0.00 | 0.00 | 0.00 | 99 | 1014.1 |
| 20260502052203 | 55 | 108 | 0.0 | 0.0 | 0.00 | 0.00 | 0.00 | 99 | 1014.1 |
| 20260502051700 | 55 | 110 | 0.0 | 0.0 | 0.00 | 0.00 | 0.00 | 99 | 1014.2 |
| 20260502051158 | 55 | 110 | 0.0 | 0.0 | 0.00 | 0.00 | 0.00 | 99 | 1014.1 |
| 20260502050654 | 55 | 110 | 0.0 | 0.0 | 0.00 | 0.00 | 0.00 | 99 | 1013.9 |
| 20260502050151 | 55 | 107 | 0.0 | 0.0 | 0.00 | 0.00 | 0.00 | 99 | 1014.2 |
| 20260502045647 | 55 | 108 | 0.0 | 0.0 | 0.00 | 0.04 | 0.04 | 99 | 1014.2 |
| 20260502045145 | 55 | 109 | 0.0 | 0.0 | 0.00 | 0.04 | 0.04 | 99 | 1014.3 |
| 20260502044642 | 55 | 109 | 0.0 | 0.0 | 0.00 | 0.04 | 0.04 | 99 | 1014.1 |
| 20260502044138 | 55 | 108 | 0.0 | 0.0 | 0.00 | 0.04 | 0.04 | 99 | 1013.9 |
| 20260502043636 | 55 | 111 | 0.0 | 0.0 | 0.00 | 0.04 | 0.04 | 99 | 1014.1 |
| 20260502043133 | 55 | 110 | 0.0 | 0.0 | 0.00 | 0.04 | 0.04 | 99 | 1013.8 |
| 20260502042632 | 55 | 108 | 0.0 | 0.0 | 0.00 | 0.04 | 0.04 | 99 | 1013.9 |
| 20260502042129 | 55 | 108 | 0.0 | 0.0 | 0.00 | 0.04 | 0.04 | 99 | 1014.0 |
| 20260502041627 | 55 | 109 | 0.0 | 0.0 | 0.00 | 0.04 | 0.04 | 99 | 1013.8 |
| 20260502041124 | 55 | 109 | 0.0 | 0.0 | 0.00 | 0.04 | 0.04 | 99 | 1013.8 |
| 20260502040621 | 55 | 109 | 0.0 | 0.0 | 0.00 | 0.04 | 0.04 | 99 | 1013.7 |
| 20260502040118 | 55 | 109 | 0.0 | 0.0 | 0.00 | 0.04 | 0.04 | 99 | 1013.9 |
| 20260502035614 | 55 | 109 | 0.0 | 0.0 | 0.00 | 0.04 | 0.04 | 99 | 1013.7 |
| 20260502035111 | 55 | 106 | 0.0 | 0.0 | 0.00 | 0.04 | 0.04 | 99 | 1013.5 |
| 20260502034609 | 55 | 111 | 0.0 | 0.0 | 0.00 | 0.04 | 0.04 | 99 | 1013.9 |
| 20260502034107 | 55 | 110 | 0.0 | 0.0 | 0.00 | 0.04 | 0.04 | 99 | 1013.9 |
| 20260502033605 | 56 | 108 | 0.0 | 0.0 | 0.00 | 0.04 | 0.04 | 99 | 1013.9 |
| 20260502033102 | 55 | 118 | 0.0 | 0.0 | 0.00 | 0.04 | 0.04 | 99 | 1014.2 |
| 20260502032558 | 56 | 111 | 0.0 | 0.0 | 0.00 | 0.04 | 0.04 | 99 | 1014.1 |
| 20260502032055 | 55 | 112 | 0.0 | 0.0 | 0.00 | 0.04 | 0.04 | 99 | 1014.1 |
| 20260502031553 | 55 | 101 | 1.0 | 1.0 | 0.00 | 0.04 | 0.04 | 99 | 1014.3 |
| 20260502031050 | 55 | 109 | 0.0 | 0.0 | 0.00 | 0.04 | 0.04 | 99 | 1014.4 |
| 20260502030549 | 56 | 110 | 0.0 | 0.0 | 0.00 | 0.04 | 0.04 | 99 | 1014.3 |
| 20260502030046 | 56 | 93 | 0.0 | 0.0 | 0.00 | 0.04 | 0.04 | 99 | 1014.3 |
| 20260502025544 | 56 | 112 | 0.0 | 0.0 | 0.00 | 0.04 | 0.04 | 99 | 1014.3 |
| 20260502025042 | 56 | 109 | 0.0 | 0.0 | 0.07 | 0.04 | 0.04 | 99 | 1014.2 |
| 20260502024539 | 56 | 104 | 0.0 | 0.0 | 0.07 | 0.04 | 0.04 | 99 | 1014.1 |
| 20260502024037 | 56 | 108 | 0.0 | 0.0 | 0.00 | 0.03 | 0.03 | 99 | 1014.5 |
| 20260502023534 | 57 | 108 | 0.0 | 0.0 | 0.00 | 0.03 | 0.03 | 99 | 1014.4 |
| 20260502023032 | 57 | 108 | 0.0 | 0.0 | 0.00 | 0.03 | 0.03 | 99 | 1014.7 |
| 20260502022528 | 57 | 110 | 0.0 | 0.0 | 0.00 | 0.03 | 0.03 | 99 | 1014.9 |
| 20260502022026 | 57 | 109 | 0.0 | 0.0 | 0.00 | 0.03 | 0.03 | 99 | 1014.9 |
| 20260502021523 | 57 | 107 | 0.0 | 0.0 | 0.00 | 0.03 | 0.03 | 99 | 1014.7 |
| 20260502021020 | 57 | 108 | 0.0 | 0.0 | 0.00 | 0.03 | 0.03 | 98 | 1015.1 |
| 20260502020517 | 57 | 108 | 0.0 | 0.0 | 0.05 | 0.03 | 0.03 | 98 | 1014.8 |
| 20260502020014 | 57 | 107 | 0.0 | 0.0 | 0.05 | 0.03 | 0.03 | 98 | 1014.9 |
| 20260502015512 | 57 | 112 | 0.0 | 0.0 | 0.00 | 0.02 | 0.02 | 98 | 1014.9 |
| 20260502015008 | 57 | 108 | 0.0 | 0.0 | 0.07 | 0.02 | 0.02 | 98 | 1014.7 |
| 20260502014505 | 57 | 118 | 0.0 | 0.0 | 0.07 | 0.02 | 0.02 | 98 | 1014.7 |
| 20260502014002 | 58 | 107 | 0.0 | 0.0 | 0.05 | 0.01 | 0.01 | 98 | 1014.7 |
| 20260502013457 | 58 | 109 | 0.0 | 0.0 | 0.05 | 0.01 | 0.01 | 97 | 1014.7 |
| 20260502012954 | 58 | 108 | 0.0 | 0.0 | 0.00 | 0.00 | 0.00 | 97 | 1014.8 |
| 20260502012452 | 58 | 110 | 0.0 | 0.0 | 0.00 | 0.00 | 0.00 | 97 | 1014.6 |
| 20260502011949 | 58 | 107 | 0.0 | 0.0 | 0.00 | 0.00 | 0.00 | 97 | 1014.5 |
| 20260502011445 | 58 | 110 | 0.0 | 0.0 | 0.00 | 0.00 | 0.00 | 97 | 1014.4 |
| 20260502010942 | 58 | 111 | 0.0 | 0.0 | 0.00 | 0.00 | 0.00 | 97 | 1014.2 |
| 20260502010439 | 58 | 110 | 0.0 | 0.0 | 0.00 | 0.00 | 0.00 | 96 | 1014.3 |
| 20260502005935 | 58 | 110 | 0.0 | 0.0 | 0.00 | 0.00 | 0.00 | 96 | 1014.3 |
| 20260502005433 | 58 | 109 | 0.0 | 0.0 | 0.00 | 0.00 | 0.00 | 96 | 1013.9 |
| 20260502004931 | 59 | 108 | 0.0 | 0.0 | 0.00 | 0.00 | 0.00 | 96 | 1014.0 |
| 20260502004426 | 59 | 109 | 0.0 | 0.0 | 0.00 | 0.00 | 0.00 | 96 | 1013.8 |
| 20260502003924 | 59 | 113 | 0.0 | 0.0 | 0.00 | 0.00 | 0.00 | 96 | 1013.7 |
| 20260502003421 | 59 | 111 | 0.0 | 0.0 | 0.00 | 0.00 | 0.00 | 95 | 1013.8 |
| 20260502002917 | 59 | 110 | 0.0 | 0.0 | 0.00 | 0.00 | 0.00 | 95 | 1013.9 |
| 20260502002415 | 59 | 109 | 0.0 | 0.0 | 0.00 | 0.00 | 0.00 | 94 | 1014.0 |
| 20260502001912 | 59 | 109 | 0.0 | 0.0 | 0.00 | 0.00 | 0.00 | 94 | 1013.8 |
| 20260502001409 | 59 | 109 | 0.0 | 0.0 | 0.00 | 0.00 | 0.00 | 93 | 1013.9 |
| 20260502000907 | 59 | 109 | 0.0 | 0.0 | 0.00 | 0.00 | 0.00 | 92 | 1013.6 |
| 20260502000406 | 60 | 109 | 0.0 | 0.0 | 0.00 | 0.00 | 0.00 | 92 | 1013.5 |
| 20260501235901 | 60 | 109 | 0.0 | 0.0 | 0.00 | 0.00 | 0.00 | 91 | 1013.5 |
| 20260501235357 | 60 | 110 | 0.0 | 0.0 | 0.00 | 0.00 | 0.00 | 90 | 1013.5 |
| 20260501234852 | 60 | 109 | 0.0 | 0.0 | 0.00 | 0.00 | 0.00 | 90 | 1013.5 |
| 20260501234349 | 60 | 110 | 0.0 | 0.0 | 0.00 | 0.00 | 0.00 | 90 | 1013.5 |
| 20260501233848 | 60 | 110 | 0.0 | 0.0 | 0.00 | 0.00 | 0.00 | 90 | 1013.3 |
| 20260501233345 | 60 | 109 | 0.0 | 0.0 | 0.00 | 0.00 | 0.00 | 90 | 1013.3 |
| 20260501232840 | 60 | 108 | 0.0 | 0.0 | 0.00 | 0.00 | 0.00 | 88 | 1013.3 |
| 20260501232338 | 61 | 109 | 0.0 | 0.0 | 0.00 | 0.00 | 0.00 | 89 | 1013.4 |
| 20260501231835 | 61 | 110 | 0.0 | 0.0 | 0.00 | 0.00 | 0.00 | 88 | 1013.2 |
| 20260501231333 | 61 | 110 | 0.0 | 0.0 | 0.00 | 0.00 | 0.00 | 88 | 1013.3 |
| 20260501230831 | 61 | 109 | 0.0 | 0.0 | 0.00 | 0.00 | 0.00 | 88 | 1013.5 |
| 20260501230330 | 61 | 109 | 0.0 | 0.0 | 0.00 | 0.00 | 0.00 | 88 | 1013.3 |
| 20260501225827 | 61 | 109 | 0.0 | 0.0 | 0.00 | 0.00 | 0.00 | 87 | 1013.2 |
| 20260501225325 | 61 | 110 | 0.0 | 0.0 | 0.00 | 0.00 | 0.00 | 88 | 1013.3 |
| 20260501224820 | 62 | 109 | 0.0 | 0.0 | 0.00 | 0.00 | 0.00 | 86 | 1013.2 |
| 20260501224318 | 62 | 109 | 0.0 | 0.0 | 0.00 | 0.00 | 0.00 | 84 | 1013.5 |
| 20260501223814 | 62 | 110 | 0.0 | 0.0 | 0.00 | 0.00 | 0.00 | 86 | 1013.3 |
| 20260501223310 | 62 | 110 | 0.0 | 0.0 | 0.00 | 0.00 | 0.00 | 86 | 1013.3 |
| 20260501222806 | 63 | 108 | 0.0 | 0.0 | 0.00 | 0.00 | 0.00 | 86 | 1013.5 |
| 20260501222305 | 63 | 109 | 0.0 | 0.0 | 0.00 | 0.00 | 0.00 | 85 | 1013.5 |
| 20260501221800 | 63 | 108 | 0.0 | 0.0 | 0.00 | 0.00 | 0.00 | 83 | 1013.4 |
| 20260501221257 | 63 | 108 | 0.0 | 0.0 | 0.00 | 0.00 | 0.00 | 82 | 1013.4 |
| 20260501220755 | 63 | 109 | 0.0 | 0.0 | 0.00 | 0.00 | 0.00 | 81 | 1013.2 |
| 20260501220252 | 64 | 110 | 0.0 | 0.0 | 0.00 | 0.00 | 0.00 | 79 | 1013.5 |
| 20260501215749 | 64 | 110 | 0.0 | 0.0 | 0.00 | 0.00 | 0.00 | 78 | 1013.2 |
| 20260501215244 | 64 | 111 | 0.0 | 0.0 | 0.00 | 0.00 | 0.00 | 76 | 1013.3 |
| 20260501214740 | 64 | 109 | 0.0 | 0.0 | 0.00 | 0.00 | 0.00 | 71 | 1013.0 |
| 20260501214236 | 64 | 110 | 0.0 | 0.0 | 0.00 | 0.00 | 0.00 | 72 | 1012.9 |
| 20260501213732 | 64 | 105 | 0.0 | 0.0 | 0.00 | 0.00 | 0.00 | 69 | 1013.0 |
| 20260501213229 | 65 | 109 | 0.0 | 0.0 | 0.00 | 0.00 | 0.00 | 71 | 1013.0 |
| 20260501212725 | 65 | 109 | 0.0 | 0.0 | 0.00 | 0.00 | 0.00 | 71 | 1012.6 |
| 20260501212221 | 66 | 109 | 0.0 | 0.0 | 0.00 | 0.00 | 0.00 | 67 | 1012.7 |
| 20260501211719 | 65 | 107 | 0.0 | 0.0 | 0.00 | 0.00 | 0.00 | 65 | 1012.7 |
| 20260501211216 | 66 | 106 | 0.0 | 0.0 | 0.00 | 0.00 | 0.00 | 66 | 1012.7 |
| 20260501210713 | 66 | 110 | 0.0 | 0.0 | 0.00 | 0.00 | 0.00 | 67 | 1012.7 |
| 20260501210210 | 66 | 109 | 0.0 | 0.0 | 0.00 | 0.00 | 0.00 | 65 | 1012.9 |
| 20260501205706 | 66 | 108 | 0.0 | 0.0 | 0.00 | 0.00 | 0.00 | 63 | 1012.8 |
| 20260501205203 | 66 | 108 | 0.0 | 0.0 | 0.00 | 0.00 | 0.00 | 63 | 1013.3 |
| 20260501204700 | 65 | 109 | 0.0 | 0.0 | 0.00 | 0.00 | 0.00 | 63 | 1013.7 |
| 20260501204156 | 66 | 115 | 0.0 | 1.0 | 0.00 | 0.00 | 0.00 | 66 | 1013.7 |
| 20260501203652 | 66 | 109 | 1.0 | 2.0 | 0.00 | 0.00 | 0.00 | 61 | 1014.0 |
| 20260501203150 | 66 | 106 | 0.0 | 0.0 | 0.00 | 0.00 | 0.00 | 65 | 1013.8 |
| 20260501202647 | 66 | 114 | 0.0 | 1.0 | 0.00 | 0.00 | 0.00 | 65 | 1013.8 |
| 20260501202144 | 67 | 109 | 0.0 | 1.0 | 0.00 | 0.00 | 0.00 | 69 | 1013.9 |
| 20260501201641 | 67 | 111 | 0.0 | 0.0 | 0.00 | 0.00 | 0.00 | 69 | 1013.9 |
| 20260501201137 | 67 | 108 | 0.0 | 1.0 | 0.00 | 0.00 | 0.00 | 72 | 1014.1 |
| 20260501200634 | 67 | 109 | 0.0 | 0.0 | 0.00 | 0.00 | 0.00 | 70 | 1014.2 |
| 20260501200132 | 67 | 110 | 0.0 | 0.0 | 0.00 | 0.00 | 0.00 | 69 | 1014.5 |
| 20260501195629 | 67 | 111 | 0.0 | 0.0 | 0.00 | 0.00 | 0.00 | 68 | 1014.4 |
| 20260501195125 | 67 | 103 | 0.0 | 0.0 | 0.00 | 0.00 | 0.00 | 72 | 1014.6 |
| 20260501194620 | 66 | 112 | 0.0 | 0.0 | 0.00 | 0.00 | 0.00 | 73 | 1014.9 |
| 20260501194116 | 66 | 113 | 0.0 | 0.0 | 0.00 | 0.00 | 0.00 | 73 | 1014.7 |
| 20260501193614 | 65 | 114 | 0.0 | 0.0 | 0.00 | 0.00 | 0.00 | 74 | 1015.0 |
| 20260501193112 | 65 | 110 | 0.0 | 0.0 | 0.00 | 0.00 | 0.00 | 74 | 1015.0 |
| 20260501192608 | 65 | 113 | 0.0 | 0.0 | 0.00 | 0.00 | 0.00 | 74 | 1014.9 |
| 20260501192106 | 64 | 127 | 0.0 | 0.0 | 0.00 | 0.00 | 0.00 | 75 | 1014.9 |
| 20260501191603 | 64 | 109 | 0.0 | 0.0 | 0.00 | 0.00 | 0.00 | 76 | 1014.9 |
| 20260501191100 | 64 | 112 | 0.0 | 0.0 | 0.00 | 0.00 | 0.00 | 74 | 1014.8 |
| 20260501190556 | 65 | 109 | 0.0 | 0.0 | 0.00 | 0.00 | 0.00 | 72 | 1014.9 |
| 20260501190052 | 65 | 109 | 0.0 | 0.0 | 0.00 | 0.00 | 0.00 | 69 | 1014.8 |
| 20260501185548 | 65 | 109 | 0.0 | 0.0 | 0.00 | 0.00 | 0.00 | 70 | 1015.0 |
| 20260501185044 | 65 | 112 | 0.0 | 0.0 | 0.00 | 0.00 | 0.00 | 67 | 1015.1 |
| 20260501184540 | 65 | 107 | 0.0 | 0.0 | 0.00 | 0.00 | 0.00 | 67 | 1015.0 |
| 20260501184040 | 66 | 108 | 0.0 | 0.0 | 0.00 | 0.00 | 0.00 | 71 | 1014.9 |
| 20260501183537 | 65 | 109 | 0.0 | 0.0 | 0.00 | 0.00 | 0.00 | 69 | 1015.0 |
| 20260501183034 | 65 | 109 | 0.0 | 0.0 | 0.00 | 0.00 | 0.00 | 68 | 1014.7 |
| 20260501182530 | 65 | 99 | 0.0 | 0.0 | 0.00 | 0.00 | 0.00 | 68 | 1014.7 |
| 20260501182027 | 64 | 105 | 0.0 | 0.0 | 0.00 | 0.00 | 0.00 | 70 | 1014.9 |
| 20260501181525 | 64 | 88 | 2.0 | 2.0 | 0.00 | 0.00 | 0.00 | 68 | 1014.8 |
| 20260501181021 | 64 | 108 | 0.0 | 1.0 | 0.00 | 0.00 | 0.00 | 70 | 1014.9 |
| 20260501180519 | 64 | 109 | 0.0 | 0.0 | 0.00 | 0.00 | 0.00 | 73 | 1015.3 |
| 20260501180015 | 64 | 109 | 0.0 | 1.0 | 0.00 | 0.00 | 0.00 | 71 | 1014.9 |
| 20260501175512 | 64 | 94 | 1.0 | 2.0 | 0.00 | 0.00 | 0.00 | 74 | 1015.0 |
| 20260501175009 | 64 | 108 | 0.0 | 0.0 | 0.00 | 0.00 | 0.00 | 77 | 1015.1 |
| 20260501174506 | 63 | 107 | 0.0 | 0.0 | 0.00 | 0.00 | 0.00 | 80 | 1015.4 |
| 20260501174004 | 62 | 109 | 0.0 | 1.0 | 0.00 | 0.00 | 0.00 | 79 | 1015.4 |
| 20260501173501 | 62 | 141 | 0.0 | 0.0 | 0.00 | 0.00 | 0.00 | 81 | 1015.5 |
| 20260501172956 | 62 | 106 | 0.0 | 0.0 | 0.00 | 0.00 | 0.00 | 79 | 1015.5 |
| 20260501172453 | 62 | 108 | 0.0 | 0.0 | 0.00 | 0.00 | 0.00 | 79 | 1015.9 |
| 20260501171948 | 61 | 109 | 0.0 | 0.0 | 0.00 | 0.00 | 0.00 | 78 | 1015.8 |
| 20260501171444 | 61 | 108 | 0.0 | 0.0 | 0.00 | 0.00 | 0.00 | 79 | 1015.8 |